TimeMDT,TemperatureF,Dew PointF,Humidity,Sea Level PressureIn,VisibilityMPH,Wind Direction,Wind SpeedMPH,Gust SpeedMPH,PrecipitationIn,Events,Conditions,WindDirDegrees,DateUTC
2:55 AM,55.4,48.2,77,30.17,10.0,North,8.1,-,N/A,,Clear,360,2013-08-15 08:55:00
3:15 AM,55.4,48.2,77,30.17,10.0,North,5.8,-,N/A,,Clear,10,2013-08-15 09:15:00
3:35 AM,55.4,48.2,77,30.16,10.0,NNE,4.6,-,N/A,,Clear,20,2013-08-15 09:35:00
3:55 AM,55.4,48.2,77,30.16,10.0,North,6.9,-,N/A,,Clear,10,2013-08-15 09:55:00
4:15 AM,53.6,48.2,82,30.16,10.0,North,5.8,-,N/A,,Clear,360,2013-08-15 10:15:00
4:35 AM,53.6,48.2,82,30.16,10.0,North,4.6,-,N/A,,Clear,350,2013-08-15 10:35:00
4:55 AM,53.6,48.2,82,30.15,10.0,NNE,4.6,-,N/A,,Clear,20,2013-08-15 10:55:00
5:15 AM,51.8,46.4,82,30.15,10.0,Calm,Calm,-,N/A,,Clear,0,2013-08-15 11:15:00
5:35 AM,51.8,46.4,82,30.15,10.0,Calm,Calm,-,N/A,,Clear,0,2013-08-15 11:35:00
5:55 AM,51.8,46.4,82,30.16,10.0,North,4.6,-,N/A,,Clear,350,2013-08-15 11:55:00
6:15 AM,53.6,48.2,82,30.16,10.0,North,6.9,-,N/A,,Clear,360,2013-08-15 12:15:00
6:35 AM,53.6,46.4,77,30.17,10.0,North,6.9,-,N/A,,Clear,350,2013-08-15 12:35:00
6:55 AM,51.8,44.6,76,30.18,10.0,NNW,8.1,-,N/A,,Clear,330,2013-08-15 12:55:00
7:15 AM,53.6,46.4,77,30.18,10.0,North,5.8,-,N/A,,Clear,10,2013-08-15 13:15:00
7:35 AM,57.2,46.4,67,30.20,10.0,NNE,8.1,-,N/A,,Clear,30,2013-08-15 13:35:00
7:55 AM,59.0,48.2,67,30.21,10.0,NNE,5.8,-,N/A,,Clear,30,2013-08-15 13:55:00
8:15 AM,60.8,48.2,63,30.21,10.0,NE,5.8,-,N/A,,Clear,50,2013-08-15 14:15:00
8:35 AM,60.8,48.2,63,30.22,10.0,ENE,4.6,-,N/A,,Clear,60,2013-08-15 14:35:00
8:55 AM,62.6,50.0,63,30.23,10.0,ENE,5.8,-,N/A,,Clear,60,2013-08-15 14:55:00
9:15 AM,62.6,51.8,68,30.23,10.0,East,4.6,-,N/A,,Clear,80,2013-08-15 15:15:00
9:35 AM,64.4,51.8,64,30.23,10.0,East,4.6,-,N/A,,Clear,90,2013-08-15 15:35:00
9:55 AM,66.2,51.8,60,30.23,10.0,NE,6.9,-,N/A,,Clear,50,2013-08-15 15:55:00
10:15 AM,66.2,51.8,60,30.23,10.0,ENE,5.8,-,N/A,,Clear,70,2013-08-15 16:15:00
10:35 AM,66.2,53.6,64,30.23,10.0,SE,5.8,-,N/A,,Clear,130,2013-08-15 16:35:00
10:55 AM,68.0,53.6,60,30.23,10.0,Calm,Calm,-,N/A,,Clear,0,2013-08-15 16:55:00
11:15 AM,69.8,51.8,53,30.22,10.0,SW,4.6,-,N/A,,Clear,220,2013-08-15 17:15:00
11:35 AM,69.8,53.6,56,30.21,10.0,SSE,4.6,-,N/A,,Clear,150,2013-08-15 17:35:00
11:55 AM,71.6,53.6,53,30.20,10.0,NW,4.6,-,N/A,,Clear,320,2013-08-15 17:55:00
12:15 PM,73.4,53.6,50,30.19,10.0,WNW,4.6,-,N/A,,Clear,290,2013-08-15 18:15:00
12:35 PM,73.4,53.6,50,30.18,10.0,Calm,Calm,-,N/A,,Clear,0,2013-08-15 18:35:00
12:55 PM,77.0,53.6,44,30.18,10.0,West,3.5,-,N/A,,Clear,280,2013-08-15 18:55:00
1:15 PM,77.0,53.6,44,30.17,10.0,NW,4.6,-,N/A,,Clear,310,2013-08-15 19:15:00
1:35 PM,80.6,51.8,37,30.16,8.0,ESE,3.5,-,N/A,,Clear,120,2013-08-15 19:35:00
1:55 PM,82.4,48.2,30,30.16,6.0,East,8.1,-,N/A,,Clear,100,2013-08-15 19:55:00
2:15 PM,82.4,48.2,30,30.15,9.0,SE,4.6,-,N/A,,Clear,130,2013-08-15 20:15:00
2:35 PM,84.2,48.2,29,30.14,8.0,ENE,3.5,-,N/A,,Clear,60,2013-08-15 20:35:00
2:55 PM,86.0,48.2,27,30.13,5.0,SSE,3.5,-,N/A,,Clear,150,2013-08-15 20:55:00
3:15 PM,87.8,48.2,25,30.12,10.0,ENE,5.8,-,N/A,,Clear,70,2013-08-15 21:15:00
3:35 PM,86.0,48.2,27,30.11,7.0,ESE,8.1,-,N/A,,Clear,120,2013-08-15 21:35:00
3:55 PM,87.8,48.2,25,30.11,10.0,Calm,Calm,-,N/A,,Clear,0,2013-08-15 21:55:00
4:15 PM,84.2,50.0,30,30.11,5.0,ESE,4.6,-,N/A,,Clear,120,2013-08-15 22:15:00
4:35 PM,86.0,50.0,29,30.11,9.0,ESE,8.1,-,N/A,,Clear,120,2013-08-15 22:35:00
4:55 PM,86.0,50.0,29,30.11,10.0,SE,8.1,-,N/A,,Clear,130,2013-08-15 22:55:00
5:35 PM,84.2,48.2,29,30.11,10.0,SSE,10.4,-,N/A,,Clear,160,2013-08-15 23:35:00
5:55 PM,84.2,48.2,29,30.13,10.0,SSE,6.9,-,N/A,,Clear,160,2013-08-15 23:55:00
6:15 PM,84.2,48.2,29,30.13,10.0,ESE,9.2,-,N/A,,Clear,120,2013-08-16 00:15:00
6:35 PM,82.4,48.2,30,30.13,10.0,SSE,6.9,-,N/A,,Clear,150,2013-08-16 00:35:00
6:55 PM,82.4,48.2,30,30.14,10.0,SE,5.8,-,N/A,,Clear,130,2013-08-16 00:55:00
7:15 PM,80.6,48.2,32,30.14,10.0,ESE,4.6,-,N/A,,Clear,110,2013-08-16 01:15:00
7:35 PM,78.8,46.4,32,30.15,10.0,East,6.9,-,N/A,,Clear,90,2013-08-16 01:35:00
7:55 PM,77.0,46.4,34,30.15,10.0,East,6.9,-,N/A,,Clear,80,2013-08-16 01:55:00
8:15 PM,75.2,46.4,36,30.16,10.0,East,8.1,-,N/A,,Clear,90,2013-08-16 02:15:00
8:35 PM,75.2,46.4,36,30.17,10.0,East,8.1,-,N/A,,Clear,90,2013-08-16 02:35:00
8:55 PM,71.6,48.2,43,30.19,10.0,South,3.5,-,N/A,,Clear,190,2013-08-16 02:55:00
9:35 PM,71.6,48.2,43,30.21,10.0,SSW,5.8,-,N/A,,Clear,200,2013-08-16 03:35:00
9:55 PM,69.8,48.2,46,30.22,10.0,SSW,5.8,-,N/A,,Clear,200,2013-08-16 03:55:00
10:15 PM,68.0,50.0,52,30.22,10.0,SSW,5.8,-,N/A,,Clear,200,2013-08-16 04:15:00
11:55 PM,64.4,48.2,56,30.22,10.0,South,4.6,-,N/A,,Clear,190,2013-08-16 05:55:00